| time (UTC) | temp F | wind direction | speed MPH | gust MPH | rain 1hr in | rain 24hr in | rain mn in | humidity % | barometer mb |
| 20260904190829 | 80 | 259 | 0.0 | 0.0 | 0.00 | 0.00 | 0.00 | 65 | 1019.6 |
| 20260904190354 | 81 | 259 | 0.0 | 0.0 | 0.00 | 0.00 | 0.00 | 64 | 1019.7 |
| 20260904185826 | 81 | 259 | 0.0 | 0.0 | 0.00 | 0.00 | 0.00 | 64 | 1019.7 |
| 20260904185320 | 81 | 259 | 0.0 | 0.0 | 0.00 | 0.00 | 0.00 | 64 | 1019.8 |
| 20260904184822 | 81 | 259 | 0.0 | 0.0 | 0.00 | 0.00 | 0.00 | 65 | 1019.7 |
| 20260904184335 | 82 | 258 | 0.0 | 2.0 | 0.00 | 0.00 | 0.00 | 64 | 1019.7 |
| 20260904183930 | 82 | 258 | 0.0 | 3.0 | 0.00 | 0.00 | 0.00 | 63 | 1019.8 |
| 20260904183847 | 82 | 258 | 0.0 | 3.0 | 0.00 | 0.00 | 0.00 | 63 | 1019.8 |
| 20260904183343 | 83 | 258 | 2.0 | 3.0 | 0.00 | 0.00 | 0.00 | 62 | 1019.8 |
| 20260904182828 | 84 | 128 | 1.0 | 2.0 | 0.00 | 0.00 | 0.00 | 61 | 1019.7 |
| 20260904182333 | 84 | 127 | 0.0 | 0.0 | 0.00 | 0.00 | 0.00 | 63 | 1019.7 |
| 20260904181842 | 83 | 127 | 0.0 | 1.0 | 0.00 | 0.00 | 0.00 | 63 | 1019.8 |
| 20260904181405 | 83 | 127 | 0.0 | 3.0 | 0.00 | 0.00 | 0.00 | 64 | 1019.6 |
| 20260904180828 | 83 | 127 | 2.0 | 3.0 | 0.00 | 0.00 | 0.00 | 64 | 1019.7 |
| 20260904180324 | 83 | 90 | 0.0 | 1.0 | 0.00 | 0.00 | 0.00 | 63 | 1019.8 |
| 20260904175822 | 83 | 90 | 0.0 | 1.0 | 0.00 | 0.00 | 0.00 | 62 | 1019.8 |
| 20260904175339 | 83 | 90 | 0.0 | 2.0 | 0.00 | 0.00 | 0.00 | 63 | 1019.8 |
| 20260904174832 | 83 | 88 | 1.0 | 3.0 | 0.00 | 0.00 | 0.00 | 64 | 1020.0 |
| 20260904174316 | 82 | 89 | 1.0 | 3.0 | 0.00 | 0.00 | 0.00 | 65 | 1020.4 |
| 20260904173828 | 81 | 87 | 0.0 | 2.0 | 0.00 | 0.00 | 0.00 | 67 | 1020.3 |
| 20260904173323 | 80 | 86 | 1.0 | 2.0 | 0.00 | 0.00 | 0.00 | 68 | 1020.4 |
| 20260904172831 | 79 | 86 | 0.0 | 3.0 | 0.00 | 0.00 | 0.00 | 70 | 1020.4 |
| 20260904172347 | 78 | 86 | 1.0 | 3.0 | 0.00 | 0.00 | 0.00 | 72 | 1020.5 |
| 20260904171814 | 77 | 71 | 1.0 | 3.0 | 0.00 | 0.00 | 0.00 | 73 | 1020.4 |
| 20260904171335 | 77 | 227 | 0.0 | 4.0 | 0.00 | 0.00 | 0.00 | 73 | 1020.5 |
| 20260904170829 | 77 | 227 | 2.0 | 4.0 | 0.00 | 0.00 | 0.00 | 72 | 1020.7 |
| 20260904170327 | 76 | 253 | 0.0 | 6.0 | 0.00 | 0.00 | 0.00 | 73 | 1020.6 |
| 20260904165815 | 76 | 360 | 2.0 | 10.0 | 0.00 | 0.00 | 0.00 | 71 | 1020.7 |
| 20260904165329 | 79 | 360 | 2.0 | 8.0 | 0.00 | 0.00 | 0.00 | 69 | 1020.8 |
| 20260904140351 | 71 | 360 | 4.0 | 10.0 | 0.00 | 0.00 | 0.00 | 83 | 1023.0 |
| 20260904135859 | 71 | 360 | 3.0 | 8.0 | 0.00 | 0.00 | 0.00 | 83 | 1022.9 |
| 20260904134923 | 72 | 255 | 3.0 | 15.0 | 0.00 | 0.00 | 0.00 | 82 | 1022.4 |
| 20260904132321 | 75 | 34 | 2.0 | 5.0 | 0.00 | 0.00 | 0.00 | 82 | 1021.8 |
| 20260904113322 | 70 | 264 | 1.0 | 8.0 | 0.00 | 0.00 | 0.00 | 85 | 1023.1 |
| 20260904110324 | 70 | 288 | 1.0 | 2.0 | 0.00 | 0.00 | 0.00 | 83 | 1023.2 |
| 20260904105840 | 70 | 291 | 0.0 | 3.0 | 0.00 | 0.00 | 0.00 | 83 | 1023.1 |
| 20260904102320 | 74 | 175 | 3.0 | 8.0 | 0.00 | 0.00 | 0.00 | 76 | 1023.0 |
| 20260904101813 | 75 | 156 | 5.0 | 8.0 | 0.00 | 0.00 | 0.00 | 73 | 1022.7 |
| 20260904101337 | 77 | 167 | 2.0 | 6.0 | 0.00 | 0.00 | 0.00 | 70 | 1022.2 |
| 20260904100832 | 77 | 222 | 0.0 | 0.0 | 0.00 | 0.00 | 0.00 | 71 | 1021.9 |
| 20260904100325 | 77 | 222 | 0.0 | 1.0 | 0.00 | 0.00 | 0.00 | 72 | 1021.4 |
| 20260904095826 | 76 | 275 | 0.0 | 6.0 | 0.00 | 0.00 | 0.00 | 73 | 1021.2 |
| 20260904095322 | 76 | 325 | 2.0 | 6.0 | 0.00 | 0.00 | 0.00 | 73 | 1020.7 |
| 20260904094824 | 76 | 42 | 3.0 | 10.0 | 0.00 | 0.00 | 0.00 | 75 | 1020.7 |
| 20260904094326 | 75 | 360 | 4.0 | 10.0 | 0.00 | 0.00 | 0.00 | 76 | 1021.0 |
| 20260904093819 | 74 | 93 | 3.0 | 11.0 | 0.00 | 0.00 | 0.00 | 78 | 1021.2 |
| 20260904093323 | 73 | 360 | 6.0 | 12.0 | 0.00 | 0.00 | 0.00 | 81 | 1021.1 |
| 20260904092819 | 72 | 82 | 6.0 | 10.0 | 0.00 | 0.00 | 0.00 | 84 | 1021.4 |
| 20260904092321 | 71 | 73 | 3.0 | 9.0 | 0.00 | 0.00 | 0.00 | 87 | 1021.6 |
| 20260904091817 | 70 | 71 | 4.0 | 9.0 | 0.00 | 0.00 | 0.00 | 87 | 1021.9 |
| 20260904091314 | 69 | 360 | 3.0 | 12.0 | 0.00 | 0.00 | 0.00 | 87 | 1022.5 |
| 20260904090818 | 69 | 78 | 1.0 | 12.0 | 0.00 | 0.00 | 0.00 | 86 | 1022.6 |
| 20260904090321 | 70 | 360 | 5.0 | 17.0 | 0.00 | 0.00 | 0.00 | 86 | 1022.9 |
| 20260904085816 | 70 | 131 | 9.0 | 17.0 | 0.00 | 0.00 | 0.00 | 85 | 1023.1 |
| 20260904085339 | 70 | 35 | 3.0 | 6.0 | 0.00 | 0.00 | 0.00 | 89 | 1022.0 |
| 20260904084818 | 69 | 61 | 2.0 | 8.0 | 0.00 | 0.00 | 0.00 | 90 | 1022.2 |
| 20260904084344 | 69 | 74 | 1.0 | 10.0 | 0.00 | 0.00 | 0.00 | 90 | 1022.3 |
| 20260904083816 | 68 | 78 | 3.0 | 10.0 | 0.00 | 0.00 | 0.00 | 90 | 1022.2 |
| 20260904083329 | 68 | 335 | 6.0 | 10.0 | 0.00 | 0.00 | 0.00 | 90 | 1022.4 |
| 20260904082838 | 67 | 318 | 2.0 | 8.0 | 0.00 | 0.00 | 0.00 | 89 | 1022.8 |
| 20260904082333 | 67 | 360 | 4.0 | 8.0 | 0.00 | 0.00 | 0.00 | 89 | 1023.1 |
| 20260904081815 | 68 | 360 | 5.0 | 6.0 | 0.00 | 0.00 | 0.00 | 88 | 1022.9 |
| 20260904080835 | 68 | 360 | 6.0 | 10.0 | 0.00 | 0.00 | 0.00 | 87 | 1023.2 |
| 20260904080324 | 69 | 360 | 4.0 | 12.0 | 0.00 | 0.00 | 0.00 | 87 | 1022.8 |
| 20260904075826 | 69 | 193 | 5.0 | 12.0 | 0.00 | 0.00 | 0.00 | 86 | 1023.2 |
| 20260904075350 | 70 | 360 | 2.0 | 5.0 | 0.00 | 0.00 | 0.00 | 86 | 1022.7 |
| 20260904074822 | 70 | 360 | 2.0 | 4.0 | 0.00 | 0.00 | 0.00 | 85 | 1022.6 |
| 20260904074407 | 70 | 200 | 0.0 | 4.0 | 0.00 | 0.00 | 0.00 | 85 | 1022.3 |
| 20260904074331 | 70 | 200 | 0.0 | 4.0 | 0.00 | 0.00 | 0.00 | 85 | 1022.3 |
| 20260904073839 | 70 | 96 | 0.0 | 6.0 | 0.00 | 0.00 | 0.00 | 86 | 1022.3 |
| 20260904073348 | 70 | 95 | 1.0 | 6.0 | 0.00 | 0.00 | 0.00 | 86 | 1022.3 |
| 20260904072823 | 70 | 115 | 2.0 | 8.0 | 0.00 | 0.00 | 0.00 | 86 | 1022.2 |
| 20260904072313 | 70 | 134 | 5.0 | 8.0 | 0.00 | 0.00 | 0.00 | 86 | 1022.2 |
| 20260904071819 | 70 | 360 | 2.0 | 10.0 | 0.00 | 0.00 | 0.00 | 86 | 1021.9 |
| 20260904071343 | 70 | 140 | 5.0 | 10.0 | 0.00 | 0.00 | 0.00 | 85 | 1022.2 |
| 20260904070846 | 70 | 360 | 6.0 | 12.0 | 0.00 | 0.00 | 0.00 | 85 | 1022.2 |
| 20260904070322 | 70 | 134 | 7.0 | 12.0 | 0.00 | 0.00 | 0.00 | 85 | 1022.3 |
| 20260904065818 | 70 | 126 | 3.0 | 11.0 | 0.00 | 0.00 | 0.00 | 84 | 1022.1 |
| 20260904065332 | 70 | 360 | 5.0 | 16.0 | 0.00 | 0.00 | 0.00 | 83 | 1021.9 |
| 20260904064816 | 72 | 360 | 12.0 | 16.0 | 0.00 | 0.00 | 0.00 | 79 | 1022.3 |
| 20260904064335 | 72 | 132 | 5.0 | 8.0 | 0.00 | 0.00 | 0.00 | 81 | 1021.9 |
| 20260904063831 | 72 | 86 | 3.0 | 9.0 | 0.00 | 0.00 | 0.00 | 82 | 1021.4 |
| 20260904063337 | 71 | 42 | 4.0 | 9.0 | 0.00 | 0.00 | 0.00 | 83 | 1021.3 |
| 20260904062834 | 71 | 77 | 2.0 | 7.0 | 0.00 | 0.00 | 0.00 | 85 | 1021.6 |
| 20260904050323 | 72 | 360 | 4.0 | 9.0 | 0.00 | 0.00 | 0.00 | 79 | 1020.7 |
| 20260904045918 | 72 | 34 | 1.0 | 4.0 | 0.00 | 0.00 | 0.00 | 79 | 1019.9 |
| 20260904045844 | 72 | 34 | 1.0 | 4.0 | 0.00 | 0.00 | 0.00 | 79 | 1019.9 |
| 20260904045333 | 72 | 269 | 2.0 | 4.0 | 0.00 | 0.00 | 0.00 | 79 | 1020.0 |
| 20260904022333 | 71 | 323 | 3.0 | 14.0 | 0.00 | 0.00 | 0.00 | 76 | 1021.5 |
| 20260904021819 | 72 | 224 | 3.0 | 14.0 | 0.00 | 0.00 | 0.00 | 76 | 1021.6 |
| 20260904021352 | 72 | 360 | 7.0 | 14.0 | 0.00 | 0.00 | 0.00 | 75 | 1021.6 |
| 20260904020838 | 74 | 360 | 5.0 | 11.0 | 0.00 | 0.00 | 0.00 | 71 | 1022.1 |
| 20260904020323 | 75 | 360 | 5.0 | 11.0 | 0.00 | 0.00 | 0.00 | 68 | 1022.0 |
| 20260904015821 | 77 | 227 | 5.0 | 9.0 | 0.00 | 0.00 | 0.00 | 64 | 1022.1 |
| 20260904015421 | 77 | 257 | 3.0 | 7.0 | 0.00 | 0.00 | 0.00 | 62 | 1021.8 |
| 20260904015345 | 77 | 257 | 3.0 | 7.0 | 0.00 | 0.00 | 0.00 | 62 | 1021.8 |
| 20260904014835 | 77 | 241 | 3.0 | 10.0 | 0.00 | 0.00 | 0.00 | 62 | 1021.8 |
| 20260904014330 | 76 | 360 | 7.0 | 12.0 | 0.00 | 0.00 | 0.00 | 62 | 1022.2 |
| 20260904013823 | 74 | 360 | 5.0 | 12.0 | 0.00 | 0.00 | 0.00 | 68 | 1021.8 |
| 20260904013356 | 73 | 360 | 5.0 | 9.0 | 0.00 | 0.00 | 0.00 | 72 | 1022.5 |
| 20260904012846 | 73 | 32 | 2.0 | 16.0 | 0.00 | 0.00 | 0.00 | 73 | 1022.0 |
| 20260904012332 | 72 | 360 | 4.0 | 23.0 | 0.00 | 0.00 | 0.00 | 74 | 1022.0 |
| 20260904011841 | 73 | 360 | 13.0 | 25.0 | 0.00 | 0.00 | 0.00 | 73 | 1022.7 |
| 20260904011339 | 75 | 360 | 8.0 | 25.0 | 0.00 | 0.00 | 0.00 | 68 | 1021.6 |
| 20260904010857 | 81 | 360 | 8.0 | 14.0 | 0.00 | 0.00 | 0.00 | 58 | 1021.0 |
| 20260904010326 | 82 | 117 | 3.0 | 9.0 | 0.00 | 0.00 | 0.00 | 46 | 1020.2 |
| 20260904005847 | 83 | 146 | 5.0 | 9.0 | 0.00 | 0.00 | 0.00 | 44 | 1020.2 |
| 20260904005347 | 84 | 117 | 0.0 | 9.0 | 0.00 | 0.00 | 0.00 | 43 | 1020.1 |
| 20260904004819 | 84 | 87 | 3.0 | 10.0 | 0.00 | 0.00 | 0.00 | 42 | 1019.8 |
| 20260904004336 | 84 | 74 | 6.0 | 10.0 | 0.00 | 0.00 | 0.00 | 41 | 1019.8 |
| 20260904003815 | 85 | 85 | 3.0 | 10.0 | 0.00 | 0.00 | 0.00 | 40 | 1020.0 |
| 20260904003328 | 85 | 360 | 6.0 | 10.0 | 0.00 | 0.00 | 0.00 | 39 | 1020.0 |
| 20260904002826 | 85 | 83 | 7.0 | 10.0 | 0.00 | 0.00 | 0.00 | 38 | 1019.9 |
| 20260904002320 | 86 | 69 | 6.0 | 9.0 | 0.00 | 0.00 | 0.00 | 37 | 1019.9 |
| 20260904001831 | 85 | 78 | 5.0 | 10.0 | 0.00 | 0.00 | 0.00 | 37 | 1020.0 |
| 20260904001412 | 85 | 80 | 5.0 | 10.0 | 0.00 | 0.00 | 0.00 | 37 | 1020.1 |
| 20260904001331 | 85 | 80 | 5.0 | 10.0 | 0.00 | 0.00 | 0.00 | 37 | 1020.1 |
| 20260904000842 | 83 | 62 | 5.0 | 10.0 | 0.00 | 0.00 | 0.00 | 38 | 1020.2 |
| 20260904000337 | 80 | 84 | 5.0 | 10.0 | 0.00 | 0.00 | 0.00 | 42 | 1020.2 |
| 20260903235854 | 77 | 74 | 1.0 | 6.0 | 0.00 | 0.00 | 0.00 | 55 | 1020.4 |
| 20260903235324 | 79 | 200 | 2.0 | 6.0 | 0.00 | 0.00 | 0.00 | 60 | 1020.5 |
| 20260903234825 | 79 | 360 | 2.0 | 6.0 | 0.00 | 0.00 | 0.00 | 55 | 1020.4 |
| 20260903234320 | 77 | 34 | 2.0 | 6.0 | 0.00 | 0.00 | 0.00 | 55 | 1020.4 |
| 20260903233828 | 78 | 194 | 1.0 | 6.0 | 0.00 | 0.00 | 0.00 | 65 | 1020.5 |
| 20260903233321 | 79 | 178 | 2.0 | 4.0 | 0.00 | 0.00 | 0.00 | 61 | 1020.6 |
| 20260903232821 | 80 | 169 | 1.0 | 2.0 | 0.00 | 0.00 | 0.00 | 60 | 1020.6 |
| 20260903232329 | 80 | 355 | 0.0 | 4.0 | 0.00 | 0.00 | 0.00 | 56 | 1020.6 |
| 20260903231831 | 80 | 355 | 1.0 | 6.0 | 0.00 | 0.00 | 0.00 | 55 | 1020.6 |
| 20260903231327 | 81 | 335 | 3.0 | 6.0 | 0.00 | 0.00 | 0.00 | 54 | 1020.8 |
| 20260903230819 | 83 | 300 | 3.0 | 7.0 | 0.00 | 0.00 | 0.00 | 48 | 1020.8 |
| 20260903230341 | 84 | 75 | 1.0 | 10.0 | 0.00 | 0.00 | 0.00 | 44 | 1020.8 |
| 20260903225819 | 85 | 269 | 2.0 | 11.0 | 0.00 | 0.00 | 0.00 | 40 | 1020.8 |
| 20260903223826 | 83 | 348 | 4.0 | 11.0 | 0.00 | 0.00 | 0.00 | 48 | 1020.3 |
| 20260903213321 | 73 | 360 | 2.0 | 6.0 | 0.00 | 0.00 | 0.00 | 77 | 1022.0 |
| 20260903212319 | 74 | 360 | 1.0 | 5.0 | 0.00 | 0.00 | 0.00 | 75 | 1022.0 |
| 20260903211341 | 75 | 109 | 1.0 | 4.0 | 0.00 | 0.00 | 0.00 | 74 | 1021.6 |
| 20260903210823 | 75 | 138 | 2.0 | 4.0 | 0.00 | 0.00 | 0.00 | 74 | 1021.5 |
| 20260903210315 | 75 | 116 | 3.0 | 6.0 | 0.00 | 0.00 | 0.00 | 73 | 1021.5 |
| 20260903205851 | 76 | 360 | 3.0 | 6.0 | 0.00 | 0.00 | 0.00 | 72 | 1021.4 |
| 20260903205348 | 76 | 143 | 3.0 | 5.0 | 0.00 | 0.00 | 0.00 | 71 | 1021.4 |
| 20260903203321 | 77 | 360 | 4.0 | 8.0 | 0.00 | 0.00 | 0.00 | 68 | 1020.8 |
| 20260903202825 | 78 | 360 | 3.0 | 6.0 | 0.00 | 0.00 | 0.00 | 66 | 1020.7 |
| 20260903202321 | 79 | 122 | 2.0 | 6.0 | 0.00 | 0.00 | 0.00 | 65 | 1020.6 |
| 20260903201816 | 79 | 122 | 3.0 | 6.0 | 0.00 | 0.00 | 0.00 | 65 | 1020.5 |
| 20260903201340 | 80 | 360 | 4.0 | 6.0 | 0.00 | 0.00 | 0.00 | 62 | 1020.5 |
| 20260903200815 | 82 | 117 | 1.0 | 3.0 | 0.00 | 0.00 | 0.00 | 60 | 1020.3 |
| 20260903200318 | 82 | 111 | 2.0 | 3.0 | 0.00 | 0.00 | 0.00 | 58 | 1020.1 |
| 20260903195837 | 83 | 142 | 0.0 | 6.0 | 0.00 | 0.00 | 0.00 | 59 | 1020.0 |
| 20260903195314 | 84 | 131 | 0.0 | 6.0 | 0.00 | 0.00 | 0.00 | 55 | 1019.8 |
| 20260903194830 | 85 | 140 | 1.0 | 3.0 | 0.00 | 0.00 | 0.00 | 55 | 1019.7 |
| 20260903194332 | 85 | 46 | 0.0 | 1.0 | 0.00 | 0.00 | 0.00 | 54 | 1019.6 |
| 20260903193828 | 85 | 46 | 0.0 | 2.0 | 0.00 | 0.00 | 0.00 | 51 | 1019.6 |
| 20260903193328 | 84 | 45 | 0.0 | 2.0 | 0.00 | 0.00 | 0.00 | 52 | 1019.5 |
| 20260903192819 | 83 | 45 | 1.0 | 3.0 | 0.00 | 0.00 | 0.00 | 56 | 1019.4 |
| 20260903192315 | 82 | 360 | 0.0 | 2.0 | 0.00 | 0.00 | 0.00 | 59 | 1019.5 |
| 20260903191819 | 82 | 176 | 0.0 | 2.0 | 0.00 | 0.00 | 0.00 | 59 | 1019.4 |
| 20260903191315 | 82 | 176 | 0.0 | 4.0 | 0.00 | 0.00 | 0.00 | 58 | 1019.4 |